This is the latest recevied weather packets stored in our database for station/object KY4GW. If no packets are shown the sender has not sent any weather packets the latest 10 day(s).
| Time | Temp. | Humidity | Pressure | Rain* | Wind** | Luminosity | Snow |
|---|---|---|---|---|---|---|---|
| 1778076673 | 10° C | 85% | 1014.4 hPa | 0 mm | - | 193 W/m² | - |
| 1778076370 | 9.44° C | 84% | 1014.4 hPa | 0 mm | - | 186 W/m² | - |
| 1778076067 | 9.44° C | 86% | 1014.4 hPa | 0 mm | - | 176 W/m² | - |
| 1778075764 | 9.44° C | 86% | 1014.8 hPa | 0 mm | - | 172 W/m² | - |
| 1778075460 | 9.44° C | 87% | 1014.8 hPa | 0 mm | - | 170 W/m² | - |
| 1778075157 | 9.44° C | 87% | 1014.8 hPa | 0 mm | - | 171 W/m² | - |
| 1778074853 | 9.44° C | 87% | 1014.1 hPa | 0 mm | - | 164 W/m² | - |
| 1778074550 | 8.89° C | 88% | 1014.1 hPa | 0 mm | - | 150 W/m² | - |
| 1778074247 | 8.89° C | 89% | 1014.1 hPa | 0 mm | - | 148 W/m² | - |
| 1778073945 | 8.89° C | 89% | 1014.1 hPa | 0 mm | - | 121 W/m² | - |
| 1778073642 | 8.89° C | 89% | 1014.1 hPa | 0 mm | - | 71 W/m² | - |
| 1778073339 | 8.89° C | 89% | 1013.8 hPa | 0 mm | - | 65 W/m² | - |
| 1778073035 | 8.89° C | 90% | 1013.8 hPa | 0 mm | - | 86 W/m² | - |
| 1778072732 | 8.89° C | 89% | 1013.8 hPa | 0 mm | - | 64 W/m² | - |
| 1778072429 | 8.89° C | 89% | 1014.1 hPa | 0 mm | - | 85 W/m² | - |
| 1778072128 | 8.89° C | 89% | 1014.1 hPa | 0 mm | - | 88 W/m² | - |
| 1778071825 | 8.89° C | 89% | 1014.1 hPa | 0 mm | - | 75 W/m² | - |
| 1778071523 | 8.89° C | 90% | 1013.8 hPa | 0 mm | - | 68 W/m² | - |
| 1778071221 | 8.89° C | 91% | 1013.8 hPa | 0 mm | - | 41 W/m² | - |
| 1778070918 | 8.89° C | 91% | 1013.8 hPa | 0 mm | - | 38 W/m² | - |
| 1778070616 | 8.89° C | 91% | 1013.1 hPa | 0 mm | - | 65 W/m² | - |
| 1778070312 | 9.44° C | 92% | 1013.1 hPa | 0 mm | - | 37 W/m² | - |
| 1778070011 | 8.89° C | 92% | 1013.1 hPa | 0 mm | - | 69 W/m² | - |
| 1778069708 | 8.89° C | 93% | 1013.1 hPa | 0 mm | - | 67 W/m² | - |
| 1778069404 | 8.89° C | 93% | 1013.4 hPa | 0 mm | - | 59 W/m² | - |
* Rain latest hour (hover to see other rain measurements)
** Current wind speed in m/s (hover to see current wind gust speed)